Starlink 32483

operational
NORAD ID: 61856 Int'l Des: 2024-202 Owner: SPXS Country: US Constellation: starlink
LEOCIRCULAR

Über Starlink 32483

Beschreibung wird geladen...

Live-Position

3D-Globus wird geladen...

Nächste Überflüge

Höhenverlauf

Altitude vs Time

uPlot chart will show altitude changes over time

Zweizeiliger Elementsatz

1 61856U 24202M 25352.96740019 .00001240 00000-0 54568-4 0 9998
2 61856 42.9984 333.7457 0000743 284.1674 75.9095 15.27581736 62998
Epoch: 18. Dez. 2025 • Age: 7 hours

Aktueller Status

Höhe 485.4 km
Geschwindigkeit 7.63 km/s
Subsatellitenpunkt 37.80°N, 146.63°W
Startdatum 7. Nov. 2024
Alter 1.1 years
Typ internet

Technische Details

Klassifizierung Payload
Masse 730.00 kg
Trockenmasse 700.00 kg
Gesamtmasse 730.00 kg
Länge 0.30 m
Durchmesser 4.10 m
Spannweite 29.00 m
Form Box + pan
Hersteller SPXS
Bus-Typ Starlink V2M
Phasenstatus In Orbit
Besitzer/Staat SPXS/US

Große Konstellationen

Loading constellations...